Location: Boquerón
(10.0687°N, 67.9212°W)
Time: 10:27:19
(UTC+00:00)

Cosmos 494 Rocket - Pass Details

Date: 29 May 2024
Orbit: 740 x 768 km, 74.1° (Epoch: 16 June)

Event Time Altitude Azimuth Distance (km) Brightness Sun altitude
Rises 23:19:44 0° 191° (S) 3,170 7.1 -7.7°
Reaches altitude 10° 23:22:05 10° 190° (S) 2,244 6.3 -8.3°
Maximum altitude 23:27:10 82° 103° (ESE) 748 3.9 -9.4°
Drops below altitude 10° 23:32:14 10° 15° (NNE) 2,240 6.5 -10.5°
Sets 23:34:35 0° 14° (NNE) 3,164 7.3 -11.1°
